Home > Time Zones > World Clock > Weather > Spain > Ibiza > Past weeks

Flag for Spain Weather past 2 weeks in Ibiza, Ibiza, Spain

Now
82 °F

Passing clouds.


Feels Like: 88 °F
Forecast: 75 / 86 °F
Wind: 7 mph from East

Location: Ibiza / Es Codola

Current Time: Aug 28, 2015 at 7:16:27 PM

Latest Report: Aug 28, 2015 at 6:30 PM


Visibility: N/A

Pressure: 30.04 "Hg

Humidity: 74%

Dew point: 73 °F

Location of IbizaLocation

Historic Weather in Ibiza — Graph

°F

Ibiza temperature yesterday

Maximum temperature yesterday: 86 °F (at 3:00 PM)
Minimum temperature yesterday: 72 °F (at 6:00 AM)
Average temperature yesterday: 79 °F

Past Weeks' High & Low Weather Summary

 TemperatureHumidityPressure
High90 °F (Aug 14, 1:30 PM)94% (Aug 15, 4:30 AM)30.18 "Hg (Aug 15, 4:30 AM)
Low66 °F (Aug 15, 7:00 AM)33% (Aug 24, 1:00 PM)29.77 "Hg (Aug 23, 5:30 PM)
Average80 °F72%29.97 "Hg
* Reported Aug 13 6:00 PM — Aug 28 6:00 PM, Ibiza, Weather by CustomWeather, © 2015

Note: Actual official high and low records may vary slightly from our data, if they occured in-between our weather recording intervals... More about our weather records

Advertising

Ibiza weather history for previous 24 hours

 ConditionsComfort  
Time TempWeatherWind HumidityBarometerVisibility
6:00 PM
Fri, Aug 28
82 °FPassing clouds.7 mph74%30.04 "HgN/A
5:30 PM84 °FPassing clouds.9 mph70%30.04 "HgN/A
5:00 PM84 °FPassing clouds.8 mph70%30.04 "HgN/A
4:30 PM84 °FPassing clouds.9 mph70%30.07 "HgN/A
4:00 PM84 °FPassing clouds.9 mph70%30.07 "HgN/A
3:30 PM84 °FPassing clouds.9 mph70%30.07 "HgN/A
3:00 PM84 °FPassing clouds.9 mph70%30.07 "HgN/A
2:30 PM84 °FPassing clouds.9 mph70%30.07 "HgN/A
2:00 PM84 °FPassing clouds.9 mph70%30.07 "HgN/A
1:30 PM82 °FPassing clouds.9 mph74%30.07 "HgN/A
1:00 PM84 °FPassing clouds.8 mph70%30.07 "HgN/A
12:30 PM84 °FPassing clouds.7 mph70%30.07 "HgN/A
12:00 PM82 °FPassing clouds.6 mph74%30.07 "HgN/A
11:30 AM82 °FPassing clouds.7 mph74%30.07 "HgN/A
11:00 AM82 °FPassing clouds.8 mph74%30.07 "HgN/A
10:30 AM82 °FSunny.8 mph74%30.04 "Hg10 mi
10:00 AM81 °FSunny.7 mph79%30.04 "Hg10 mi
9:30 AM81 °FSunny.5 mph79%30.04 "Hg10 mi
9:00 AM79 °FSunny.5 mph84%30.04 "Hg10 mi
8:30 AM77 °FPassing clouds.No wind89%30.04 "HgN/A
8:00 AM73 °FPassing clouds.2 mph94%30.01 "HgN/A
7:30 AM73 °FPassing clouds.No wind89%30.01 "HgN/A
7:00 AM72 °FPassing clouds.No wind94%30.01 "HgN/A
6:30 AM73 °FPassing clouds.1 mph89%30.01 "HgN/A
6:00 AM73 °FPassing clouds.1 mph89%30.01 "HgN/A
5:30 AM73 °FPassing clouds.3 mph94%30.01 "HgN/A
5:00 AM73 °FPassing clouds.1 mph89%30.01 "HgN/A
4:30 AM73 °FPassing clouds.1 mph89%30.01 "HgN/A
4:00 AM73 °FPassing clouds.2 mph94%30.01 "HgN/A
3:30 AM73 °FPassing clouds.2 mph89%30.01 "HgN/A
3:00 AM73 °FPassing clouds.2 mph94%30.01 "HgN/A
2:30 AM73 °FPassing clouds.1 mph89%30.01 "HgN/A
2:00 AM75 °FClear.1 mph83%30.01 "Hg10 mi
1:30 AM75 °FClear.1 mph89%30.01 "Hg10 mi
1:00 AM75 °FClear.2 mph89%30.01 "Hg10 mi
12:30 AM77 °FClear.No wind83%30.01 "Hg10 mi
12:00 AM77 °FClear.1 mph83%30.01 "Hg10 mi
11:30 PM
Thu, Aug 27
77 °FClear.1 mph83%30.01 "Hg10 mi
11:00 PM77 °FClear.1 mph83%30.01 "Hg10 mi
10:30 PM77 °FClear.1 mph83%29.98 "Hg10 mi
10:00 PM79 °FClear.2 mph79%29.98 "Hg10 mi
9:30 PM79 °FSunny.1 mph79%29.98 "Hg10 mi
9:00 PM79 °FSunny.1 mph79%29.98 "Hg10 mi
8:30 PM81 °FSunny.2 mph74%29.98 "Hg10 mi
7:30 PM82 °FSunny.7 mph70%29.98 "Hg10 mi
7:00 PM82 °FSunny.7 mph70%29.98 "Hg10 mi
Weather by CustomWeather, © 2015

See weather overviewHow to use our weather pages